الصفحة الرئيسية
METAR-TAF:

METAR-TAF

مطار :

Red Cliff Pass

Copper Mountain, كولورادو, الولايات المتحدة

دائرة عرض: 39-28-02N, خط طول: 106-09-01W, ارتفاع: 3680 متر

مراقبة الطقس الحالي

تاريخ ووقت الإصدار 28 دقيقة قبل الساعة 21:54UTC
ريح 9 عقدة من الغرب/الجنوب الغربي تتزايد حتى 18 عقدة, الاتجاه يتراوح بين الجنوب الغربي و الشمال الغربي
درجة الحرارة 15°درجة مئوية
الرطوبة 9%
ضغط 1036 hPa
الرؤية: 16.1 كم
سماء صافية

METAR: KCCU 222154Z AUTO 25009G18KT 220V310 10SM CLR 15/M18 A3058 RMK AO2

زمن: 16:22 (22:22 UTC)


TAF: مفقودة

أرصاد الطقس والتوقعات من أكثر من 4000 مطار (تقارير الطقس للمطار METAR والتنبؤ بالطقس بالمطارTAF).

المحطات المتاحة هي النقط الصفراء والحمراء على الخريطة.

حرك المؤشر فوق النقطة لمعرفة اسم المحطة.

ثم انقر لمعرفة أرصاد وتوقعات الطقس.

لتغيير الخارطة: اضغط على الأزرار الخضراء مع رمز الصليب الأسود للتكبير. على الزر الأخضر مع شرطة للتصغير، أو على الأسهم الخضراء للخرائط المجاورة.


METAR-TAF: